星链-2681 (STARLINK-2681 )

导读 | 豆包AI

STARLINK-2681是美国太空探索技术公司(SpaceX)星链卫星互联网项目的组成卫星,于2021年5月9日发射入轨,隶属于Starlink分组星座,主要依托低轨轨道部署,为全球提供高速卫星互联网接入服务,属于SpaceX批量部署的星链卫星之一,支撑星链网络全球覆盖与服务能力拓展。

基本信息
目录编号:
48465
目录名称:
STARLINK-2681
国际标识:
2021-040AP
轨道中心:
EARTH
卫星名称:
星链-2681
卫星全名:
星链-2681 (STARLINK-2681 )
卫星状态:
在轨 (已飞行1770 天)
发射日期:
2021-05-09 UTC
国别 :
美国 (US)
星等 :
--
轨道信息
数据来源 国际轨道数据
星历时间: 2026-03-14T16:00:02+0800
8小时前
查看轨道信息
半长轴: 6853.436km
偏心率: 0.0001237
轨道倾角: 53.143°
近地点辐角 84.551°
升交点赤经 169.682°
平近点角 21.283°
近地点: 474.451km
远地点: 476.147km
周期: 94.107分钟
每日圈数: 15.301721
详细信息
固有亮度:
5
最大亮度:
2.5
卫星平台:
Starlink V1.0
覆盖范围:
全球
运营商:
太空探索技术公司
运营商所在国:
美国
制造商(研发单位):
太空探索技术公司
制造商所在国:
美国
使用方式:
暂无
卫星简介
星链(Starlink)计划是由太空探索技术公司(SpaceX)提出的一个巨型低轨卫星互联网星座项目,计划在2019年至2024年间在太空搭建由约1.2万颗卫星组成的“星链”网络,其中1584颗将部署在地球上空550千米处的近地轨道,并从2020年开始工作。该卫星仍在工作。
2D轨道图
3D轨道图
轨道高度分析图
轨道倾角分析图
轨道综合分析图
查看轨道综合分析图